Year,Month,Day,Hour,Minute,Value (Times are PST for temperature in C)
2019,03,19,00,00,7.60
2019,03,19,00,01,7.60
2019,03,19,00,02,7.60
2019,03,19,00,03,7.60
2019,03,19,00,04,7.60
2019,03,19,00,05,7.70
2019,03,19,00,06,7.70
2019,03,19,00,07,7.70
2019,03,19,00,08,7.70
2019,03,19,00,09,7.70
2019,03,19,00,10,7.70
2019,03,19,00,11,7.60
2019,03,19,00,12,7.50
2019,03,19,00,13,7.40
2019,03,19,00,14,7.30
2019,03,19,00,15,7.20
2019,03,19,00,16,7.20
2019,03,19,00,17,7.10
2019,03,19,00,18,7.10
2019,03,19,00,19,7.00
2019,03,19,00,20,7.00
2019,03,19,00,21,6.90
2019,03,19,00,22,6.90
2019,03,19,00,23,6.90
2019,03,19,00,24,6.90
2019,03,19,00,25,6.90
2019,03,19,00,26,6.90
2019,03,19,00,27,6.80
2019,03,19,00,28,6.80
2019,03,19,00,29,6.80
2019,03,19,00,30,6.70
2019,03,19,00,31,6.80
2019,03,19,00,32,6.90
2019,03,19,00,33,6.90
2019,03,19,00,34,6.90
2019,03,19,00,35,7.00
2019,03,19,00,36,7.00
2019,03,19,00,37,7.00
2019,03,19,00,38,6.90
2019,03,19,00,39,6.90
2019,03,19,00,40,6.90
2019,03,19,00,41,7.00
2019,03,19,00,42,7.00
2019,03,19,00,43,7.00
2019,03,19,00,44,7.00
2019,03,19,00,45,7.00
2019,03,19,00,46,7.00
2019,03,19,00,47,7.10
2019,03,19,00,48,7.10
2019,03,19,00,49,7.10
2019,03,19,00,50,7.10
2019,03,19,00,51,7.10
2019,03,19,00,52,7.00
2019,03,19,00,53,7.00
2019,03,19,00,54,7.00
2019,03,19,00,55,7.00
2019,03,19,00,56,7.00
2019,03,19,00,57,6.90
2019,03,19,00,58,6.90
2019,03,19,00,59,6.80
2019,03,19,01,00,6.80
2019,03,19,01,01,6.70
2019,03,19,01,02,6.70
2019,03,19,01,03,6.70
2019,03,19,01,04,6.70
2019,03,19,01,05,6.70
2019,03,19,01,06,6.70
2019,03,19,01,07,6.70
2019,03,19,01,08,6.70
2019,03,19,01,09,6.70
2019,03,19,01,10,6.70
2019,03,19,01,11,6.70
2019,03,19,01,12,6.60
2019,03,19,01,13,6.60
2019,03,19,01,14,6.60
2019,03,19,01,15,6.70
2019,03,19,01,16,6.70
2019,03,19,01,17,6.70
2019,03,19,01,18,6.80
2019,03,19,01,19,6.80
2019,03,19,01,20,6.80
2019,03,19,01,21,6.90
2019,03,19,01,22,6.90
2019,03,19,01,23,6.90
2019,03,19,01,24,6.90
2019,03,19,01,25,6.90
2019,03,19,01,26,6.80
2019,03,19,01,27,6.80
2019,03,19,01,28,6.80
2019,03,19,01,29,6.80
2019,03,19,01,30,6.80
2019,03,19,01,31,6.70
2019,03,19,01,32,6.70
2019,03,19,01,33,6.70
2019,03,19,01,34,6.70
2019,03,19,01,35,6.60
2019,03,19,01,36,6.60
2019,03,19,01,37,6.60
2019,03,19,01,38,6.60
2019,03,19,01,39,6.60
2019,03,19,01,40,6.60
2019,03,19,01,41,6.60
2019,03,19,01,42,6.60
2019,03,19,01,43,6.60
2019,03,19,01,44,6.60
2019,03,19,01,45,6.60
2019,03,19,01,46,6.50
2019,03,19,01,47,6.50
2019,03,19,01,48,6.50
2019,03,19,01,49,6.50
2019,03,19,01,50,6.40
2019,03,19,01,51,6.40
2019,03,19,01,52,6.30
2019,03,19,01,53,6.30
2019,03,19,01,54,6.30
2019,03,19,01,55,6.40
2019,03,19,01,56,6.40
2019,03,19,01,57,6.30
2019,03,19,01,58,6.30
2019,03,19,01,59,6.30
2019,03,19,02,00,6.30
2019,03,19,02,01,6.40
2019,03,19,02,02,6.30
2019,03,19,02,03,6.30
2019,03,19,02,04,6.30
2019,03,19,02,05,6.30
2019,03,19,02,06,6.30
2019,03,19,02,07,6.30
2019,03,19,02,08,6.30
2019,03,19,02,09,6.30
2019,03,19,02,10,6.30
2019,03,19,02,11,6.30
2019,03,19,02,12,6.30
2019,03,19,02,13,6.30
2019,03,19,02,14,6.20
2019,03,19,02,15,6.20
2019,03,19,02,16,6.20
2019,03,19,02,17,6.20
2019,03,19,02,18,6.20
2019,03,19,02,19,6.10
2019,03,19,02,20,6.10
2019,03,19,02,21,6.00
2019,03,19,02,22,6.00
2019,03,19,02,23,6.00
2019,03,19,02,24,5.90
2019,03,19,02,25,5.90
2019,03,19,02,26,5.90
2019,03,19,02,27,5.90
2019,03,19,02,28,5.90
2019,03,19,02,29,5.90
2019,03,19,02,30,5.90
2019,03,19,02,31,5.90
2019,03,19,02,32,5.90
2019,03,19,02,33,5.90
2019,03,19,02,34,5.90
2019,03,19,02,35,5.90
2019,03,19,02,36,6.00
2019,03,19,02,37,6.00
2019,03,19,02,38,6.00
2019,03,19,02,39,5.90
2019,03,19,02,40,5.90
2019,03,19,02,41,5.80
2019,03,19,02,42,5.80
2019,03,19,02,43,5.80
2019,03,19,02,44,5.80
2019,03,19,02,45,5.80
2019,03,19,02,46,5.80
2019,03,19,02,47,5.80
2019,03,19,02,48,5.90
2019,03,19,02,49,5.90
2019,03,19,02,50,5.90
2019,03,19,02,51,5.90
2019,03,19,02,52,5.90
2019,03,19,02,53,5.90
2019,03,19,02,54,5.90
2019,03,19,02,55,5.90
2019,03,19,02,56,5.90
2019,03,19,02,57,5.90
2019,03,19,02,58,5.90
2019,03,19,02,59,5.90
2019,03,19,03,00,5.90
2019,03,19,03,01,6.00
2019,03,19,03,02,6.00
2019,03,19,03,03,6.00
2019,03,19,03,04,6.00
2019,03,19,03,05,5.90
2019,03,19,03,06,5.90
2019,03,19,03,07,5.80
2019,03,19,03,08,5.80
2019,03,19,03,09,5.80
2019,03,19,03,10,5.80
2019,03,19,03,11,5.70
2019,03,19,03,12,5.70
2019,03,19,03,13,5.70
2019,03,19,03,14,5.60
2019,03,19,03,15,5.60
2019,03,19,03,16,5.60
2019,03,19,03,17,5.70
2019,03,19,03,18,5.70
2019,03,19,03,19,5.80
2019,03,19,03,20,5.80
2019,03,19,03,21,5.80
2019,03,19,03,22,5.90
2019,03,19,03,23,5.80
2019,03,19,03,24,5.80
2019,03,19,03,25,5.80
2019,03,19,03,26,5.80
2019,03,19,03,27,5.80
2019,03,19,03,28,5.70
2019,03,19,03,29,5.70
2019,03,19,03,30,5.70
2019,03,19,03,31,5.70
2019,03,19,03,32,5.70
2019,03,19,03,33,5.60
2019,03,19,03,34,5.60
2019,03,19,03,35,5.60
2019,03,19,03,36,5.50
2019,03,19,03,37,5.50
2019,03,19,03,38,5.40
2019,03,19,03,39,5.40
2019,03,19,03,40,5.40
2019,03,19,03,41,5.40
2019,03,19,03,42,5.40
2019,03,19,03,43,5.40
2019,03,19,03,44,5.30
2019,03,19,03,45,5.30
2019,03,19,03,46,5.30
2019,03,19,03,47,5.30
2019,03,19,03,48,5.30
2019,03,19,03,49,5.40
2019,03,19,03,50,5.40
2019,03,19,03,51,5.40
2019,03,19,03,52,5.50
2019,03,19,03,53,5.60
2019,03,19,03,54,5.60
2019,03,19,03,55,5.70
2019,03,19,03,56,5.70
2019,03,19,03,57,5.70
2019,03,19,03,58,5.70
2019,03,19,03,59,5.70
2019,03,19,04,00,5.70
2019,03,19,04,01,5.70
2019,03,19,04,02,5.70
2019,03,19,04,03,5.60
2019,03,19,04,04,5.60
2019,03,19,04,05,5.60
2019,03,19,04,06,5.60
2019,03,19,04,07,5.60
2019,03,19,04,08,5.70
2019,03,19,04,09,5.70
2019,03,19,04,10,5.70
2019,03,19,04,11,5.70
2019,03,19,04,12,5.70
2019,03,19,04,13,5.60
2019,03,19,04,14,5.60
2019,03,19,04,15,5.60
2019,03,19,04,16,5.60
2019,03,19,04,17,5.60
2019,03,19,04,18,5.50
2019,03,19,04,19,5.50
2019,03,19,04,20,5.50
2019,03,19,04,21,5.40
2019,03,19,04,22,5.40
2019,03,19,04,23,5.30
2019,03,19,04,24,5.30
2019,03,19,04,25,5.30
2019,03,19,04,26,5.20
2019,03,19,04,27,5.20
2019,03,19,04,28,5.20
2019,03,19,04,29,5.30
2019,03,19,04,30,5.30
2019,03,19,04,31,5.30
2019,03,19,04,32,5.30
2019,03,19,04,33,5.20
2019,03,19,04,34,5.20
2019,03,19,04,35,5.20
2019,03,19,04,36,5.20
2019,03,19,04,37,5.20
2019,03,19,04,38,5.20
2019,03,19,04,39,5.20
2019,03,19,04,40,5.10
2019,03,19,04,41,5.10
2019,03,19,04,42,5.10
2019,03,19,04,43,5.10
2019,03,19,04,44,5.10
2019,03,19,04,45,5.10
2019,03,19,04,46,5.10
2019,03,19,04,47,5.00
2019,03,19,04,48,5.00
2019,03,19,04,49,5.00
2019,03,19,04,50,5.00
2019,03,19,04,51,5.00
2019,03,19,04,52,5.00
2019,03,19,04,53,4.90
2019,03,19,04,54,4.90
2019,03,19,04,55,4.90
2019,03,19,04,56,4.90
2019,03,19,04,57,4.80
2019,03,19,04,58,4.80
2019,03,19,04,59,4.80
2019,03,19,05,00,4.80
2019,03,19,05,01,4.80
2019,03,19,05,02,4.80
2019,03,19,05,03,4.80
2019,03,19,05,04,4.70
2019,03,19,05,05,4.70
2019,03,19,05,06,4.70
2019,03,19,05,07,4.60
2019,03,19,05,08,4.60
2019,03,19,05,09,4.60
2019,03,19,05,10,4.60
2019,03,19,05,11,4.50
2019,03,19,05,12,4.50
2019,03,19,05,13,4.60
2019,03,19,05,14,4.60
2019,03,19,05,15,4.60
2019,03,19,05,16,4.60
2019,03,19,05,17,4.70
2019,03,19,05,18,4.70
2019,03,19,05,19,4.80
2019,03,19,05,20,4.80
2019,03,19,05,21,4.80
2019,03,19,05,22,4.80
2019,03,19,05,23,4.80
2019,03,19,05,24,4.80
2019,03,19,05,25,4.80
2019,03,19,05,26,4.80
2019,03,19,05,27,4.80
2019,03,19,05,28,4.80
2019,03,19,05,29,4.80
2019,03,19,05,30,4.80
2019,03,19,05,31,4.80
2019,03,19,05,32,4.80
2019,03,19,05,33,4.80
2019,03,19,05,34,4.90
2019,03,19,05,35,4.90
2019,03,19,05,36,4.90
2019,03,19,05,37,4.90
2019,03,19,05,38,4.90
2019,03,19,05,39,4.90
2019,03,19,05,40,4.80
2019,03,19,05,41,4.80
2019,03,19,05,42,4.80
2019,03,19,05,43,4.80
2019,03,19,05,44,4.80
2019,03,19,05,45,4.80
2019,03,19,05,46,4.80
2019,03,19,05,47,4.80
2019,03,19,05,48,4.80
2019,03,19,05,49,4.80
2019,03,19,05,50,4.80
2019,03,19,05,51,4.90
2019,03,19,05,52,4.90
2019,03,19,05,53,4.90
2019,03,19,05,54,4.90
2019,03,19,05,55,4.90
2019,03,19,05,56,5.00
2019,03,19,05,57,5.00
2019,03,19,05,58,5.00
2019,03,19,05,59,5.00
2019,03,19,06,00,4.90
2019,03,19,06,01,4.90
2019,03,19,06,02,4.90
2019,03,19,06,03,4.90
2019,03,19,06,04,4.90
2019,03,19,06,05,4.90
2019,03,19,06,06,4.90
2019,03,19,06,07,4.90
2019,03,19,06,08,5.00
2019,03,19,06,09,5.10
2019,03,19,06,10,5.10
2019,03,19,06,11,5.10
2019,03,19,06,12,5.10
2019,03,19,06,13,5.10
2019,03,19,06,14,5.10
2019,03,19,06,15,5.10
2019,03,19,06,16,5.00
2019,03,19,06,17,5.00
2019,03,19,06,18,4.90
2019,03,19,06,19,4.80
2019,03,19,06,20,4.80
2019,03,19,06,21,4.80
2019,03,19,06,22,4.70
2019,03,19,06,23,4.70
2019,03,19,06,24,4.70
2019,03,19,06,25,4.70
2019,03,19,06,26,4.60
2019,03,19,06,27,4.60
2019,03,19,06,28,4.60
2019,03,19,06,29,4.60
2019,03,19,06,30,4.60
2019,03,19,06,31,4.60
2019,03,19,06,32,4.60
2019,03,19,06,33,4.60
2019,03,19,06,34,4.60
2019,03,19,06,35,4.60
2019,03,19,06,36,4.60
2019,03,19,06,37,4.60
2019,03,19,06,38,4.60
2019,03,19,06,39,4.60
2019,03,19,06,40,4.60
2019,03,19,06,41,4.60
2019,03,19,06,42,4.60
2019,03,19,06,43,4.60
2019,03,19,06,44,4.60
2019,03,19,06,45,4.50
2019,03,19,06,46,4.50
2019,03,19,06,47,4.50
2019,03,19,06,48,4.40
2019,03,19,06,49,4.40
2019,03,19,06,50,4.30
2019,03,19,06,51,4.30
2019,03,19,06,52,4.30
2019,03,19,06,53,4.30
2019,03,19,06,54,4.30
2019,03,19,06,55,4.20
2019,03,19,06,56,4.20
2019,03,19,06,57,4.20
2019,03,19,06,58,4.20
2019,03,19,06,59,4.20
2019,03,19,07,00,4.20
2019,03,19,07,01,4.20
2019,03,19,07,02,4.20
2019,03,19,07,03,4.20
2019,03,19,07,04,4.20
2019,03,19,07,05,4.20
2019,03,19,07,06,4.20
2019,03,19,07,07,4.20
2019,03,19,07,08,4.20
2019,03,19,07,09,4.20
2019,03,19,07,10,4.20
2019,03,19,07,11,4.20
2019,03,19,07,12,4.20
2019,03,19,07,13,4.20
2019,03,19,07,14,4.20
2019,03,19,07,15,4.10
2019,03,19,07,16,4.10
2019,03,19,07,17,4.00
2019,03,19,07,18,4.00
2019,03,19,07,19,3.90
2019,03,19,07,20,3.90
2019,03,19,07,21,3.80
2019,03,19,07,22,3.80
2019,03,19,07,23,3.80
2019,03,19,07,24,3.80
2019,03,19,07,25,3.80
2019,03,19,07,26,3.80
2019,03,19,07,27,3.80
2019,03,19,07,28,3.80
2019,03,19,07,29,3.80
2019,03,19,07,30,3.80
2019,03,19,07,31,3.80
2019,03,19,07,32,3.80
2019,03,19,07,33,3.80
2019,03,19,07,34,3.80
2019,03,19,07,35,3.80
2019,03,19,07,36,3.70
2019,03,19,07,37,3.70
2019,03,19,07,38,3.70
2019,03,19,07,39,3.70
2019,03,19,07,40,3.70
2019,03,19,07,41,3.70
2019,03,19,07,42,3.60
2019,03,19,07,43,3.60
2019,03,19,07,44,3.70
2019,03,19,07,45,3.70
2019,03,19,07,46,3.70
2019,03,19,07,47,3.80
2019,03,19,07,48,3.80
2019,03,19,07,49,3.90
2019,03,19,07,50,3.90
2019,03,19,07,51,4.00
2019,03,19,07,52,4.00
2019,03,19,07,53,4.10
2019,03,19,07,54,4.10
2019,03,19,07,55,4.20
2019,03,19,07,56,4.20
2019,03,19,07,57,4.30
2019,03,19,07,58,4.40
2019,03,19,07,59,4.50
2019,03,19,08,00,4.50
2019,03,19,08,01,4.60
2019,03,19,08,02,4.60
2019,03,19,08,03,4.70
2019,03,19,08,04,4.80
2019,03,19,08,05,4.80
2019,03,19,08,06,4.90
2019,03,19,08,07,4.90
2019,03,19,08,08,5.00
2019,03,19,08,09,5.00
2019,03,19,08,10,5.10
2019,03,19,08,11,5.20
2019,03,19,08,12,5.20
2019,03,19,08,13,5.30
2019,03,19,08,14,5.30
2019,03,19,08,15,5.40
2019,03,19,08,16,5.50
2019,03,19,08,17,5.60
2019,03,19,08,18,5.60
2019,03,19,08,19,5.70
2019,03,19,08,20,5.70
2019,03,19,08,21,5.80
2019,03,19,08,22,5.80
2019,03,19,08,23,5.80
2019,03,19,08,24,5.80
2019,03,19,08,25,5.90
2019,03,19,08,26,5.90
2019,03,19,08,27,5.90
2019,03,19,08,28,6.00
2019,03,19,08,29,6.00
2019,03,19,08,30,6.10
2019,03,19,08,31,6.10
2019,03,19,08,32,6.20
2019,03,19,08,33,6.20
2019,03,19,08,34,6.30
2019,03,19,08,35,6.30
2019,03,19,08,36,6.40
2019,03,19,08,37,6.40
2019,03,19,08,38,6.50
2019,03,19,08,39,6.60
2019,03,19,08,40,6.60
2019,03,19,08,41,6.70
2019,03,19,08,42,6.70
2019,03,19,08,43,6.80
2019,03,19,08,44,6.90
2019,03,19,08,45,6.90
2019,03,19,08,46,7.00
2019,03,19,08,47,7.10
2019,03,19,08,48,7.10
2019,03,19,08,49,7.20
2019,03,19,08,50,7.20
2019,03,19,08,51,7.20
2019,03,19,08,52,7.30
2019,03,19,08,53,7.30
2019,03,19,08,54,7.40
2019,03,19,08,55,7.50
2019,03,19,08,56,7.50
2019,03,19,08,57,7.60
2019,03,19,08,58,7.60
2019,03,19,08,59,7.70
2019,03,19,09,00,7.80
2019,03,19,09,01,7.90
2019,03,19,09,02,7.90
2019,03,19,09,03,8.00
2019,03,19,09,04,8.00
2019,03,19,09,05,8.10
2019,03,19,09,06,8.10
2019,03,19,09,07,8.20
2019,03,19,09,08,8.30
2019,03,19,09,09,8.30
2019,03,19,09,10,8.30
2019,03,19,09,11,8.40
2019,03,19,09,12,8.40
2019,03,19,09,13,8.40
2019,03,19,09,14,8.40
2019,03,19,09,15,8.40
2019,03,19,09,16,8.50
2019,03,19,09,17,8.50
2019,03,19,09,18,8.60
2019,03,19,09,19,8.60
2019,03,19,09,20,8.70
2019,03,19,09,21,8.70
2019,03,19,09,22,8.80
2019,03,19,09,23,8.80
2019,03,19,09,24,8.90
2019,03,19,09,25,9.00
2019,03,19,09,26,9.00
2019,03,19,09,27,9.10
2019,03,19,09,28,9.10
2019,03,19,09,29,9.20
2019,03,19,09,30,9.30
2019,03,19,09,31,9.30
2019,03,19,09,32,9.40
2019,03,19,09,33,9.50
2019,03,19,09,34,9.60
2019,03,19,09,35,9.60
2019,03,19,09,36,9.70
2019,03,19,09,37,9.70
2019,03,19,09,38,9.70
2019,03,19,09,39,9.80
2019,03,19,09,40,9.80
2019,03,19,09,41,9.90
2019,03,19,09,42,9.90
2019,03,19,09,43,9.90
2019,03,19,09,44,9.90
2019,03,19,09,45,9.90
2019,03,19,09,46,9.80
2019,03,19,09,47,9.80
2019,03,19,09,48,9.80
2019,03,19,09,49,9.80
2019,03,19,09,50,9.80
2019,03,19,09,51,9.80
2019,03,19,09,52,9.80
2019,03,19,09,53,9.80
2019,03,19,09,54,9.80
2019,03,19,09,55,9.80
2019,03,19,09,56,9.80
2019,03,19,09,57,9.80
2019,03,19,09,58,9.90
2019,03,19,09,59,9.90
2019,03,19,10,00,9.90
2019,03,19,10,01,10.00
2019,03,19,10,02,10.00
2019,03,19,10,03,10.10
2019,03,19,10,04,10.10
2019,03,19,10,05,10.20
2019,03,19,10,06,10.20
2019,03,19,10,07,10.30
2019,03,19,10,08,10.40
2019,03,19,10,09,10.40
2019,03,19,10,10,10.50
2019,03,19,10,11,10.50
2019,03,19,10,12,10.60
2019,03,19,10,13,10.70
2019,03,19,10,14,10.80
2019,03,19,10,15,10.90
2019,03,19,10,16,11.00
2019,03,19,10,17,11.10
2019,03,19,10,18,11.20
2019,03,19,10,19,11.30
2019,03,19,10,20,11.40
2019,03,19,10,21,11.50
2019,03,19,10,22,11.60
2019,03,19,10,23,11.70
2019,03,19,10,24,11.70
2019,03,19,10,25,11.80
2019,03,19,10,26,11.90
2019,03,19,10,27,12.00
2019,03,19,10,28,12.00
2019,03,19,10,29,12.10
2019,03,19,10,30,12.20
2019,03,19,10,31,12.30
2019,03,19,10,32,12.40
2019,03,19,10,33,12.50
2019,03,19,10,34,12.70
2019,03,19,10,35,12.80
2019,03,19,10,36,13.00
2019,03,19,10,37,13.20
2019,03,19,10,38,13.30
2019,03,19,10,39,13.50
2019,03,19,10,40,13.70
2019,03,19,10,41,13.80
2019,03,19,10,42,13.80
2019,03,19,10,43,13.80
2019,03,19,10,44,13.90
2019,03,19,10,45,13.90
2019,03,19,10,46,13.90
2019,03,19,10,47,13.90
2019,03,19,10,48,14.00
2019,03,19,10,49,14.00
2019,03,19,10,50,14.00
2019,03,19,10,51,14.00
2019,03,19,10,52,13.90
2019,03,19,10,53,13.90
2019,03,19,10,54,13.90
2019,03,19,10,55,13.80
2019,03,19,10,56,13.80
2019,03,19,10,57,13.70
2019,03,19,10,58,13.70
2019,03,19,10,59,13.70
2019,03,19,11,00,13.70
2019,03,19,11,01,13.70
2019,03,19,11,02,13.70
2019,03,19,11,03,13.80
2019,03,19,11,04,13.80
2019,03,19,11,05,13.90
2019,03,19,11,06,14.00
2019,03,19,11,07,14.20
2019,03,19,11,08,14.20
2019,03,19,11,09,14.20
2019,03,19,11,10,14.30
2019,03,19,11,11,14.30
2019,03,19,11,12,14.30
2019,03,19,11,13,14.30
2019,03,19,11,14,14.40
2019,03,19,11,15,14.40
2019,03,19,11,16,14.40
2019,03,19,11,17,14.40
2019,03,19,11,18,14.40
2019,03,19,11,19,14.30
2019,03,19,11,20,14.30
2019,03,19,11,21,14.30
2019,03,19,11,22,14.40
2019,03,19,11,23,14.40
2019,03,19,11,24,14.40
2019,03,19,11,25,14.30
2019,03,19,11,26,14.40
2019,03,19,11,27,14.40
2019,03,19,11,28,14.40
2019,03,19,11,29,14.40
2019,03,19,11,30,14.40
2019,03,19,11,31,14.50
2019,03,19,11,32,14.60
2019,03,19,11,33,14.60
2019,03,19,11,34,14.60
2019,03,19,11,35,14.60
2019,03,19,11,36,14.50
2019,03,19,11,37,14.40
2019,03,19,11,38,14.40
2019,03,19,11,39,14.40
2019,03,19,11,40,14.40
2019,03,19,11,41,14.40
2019,03,19,11,42,14.30
2019,03,19,11,43,14.30
2019,03,19,11,44,14.30
2019,03,19,11,45,14.30
2019,03,19,11,46,14.30
2019,03,19,11,47,14.30
2019,03,19,11,48,14.40
2019,03,19,11,49,14.40
2019,03,19,11,50,14.40
2019,03,19,11,51,14.50
2019,03,19,11,52,14.50
2019,03,19,11,53,14.50
2019,03,19,11,54,14.60
2019,03,19,11,55,14.60
2019,03,19,11,56,14.70
2019,03,19,11,57,14.70
2019,03,19,11,58,14.70
2019,03,19,11,59,14.80
2019,03,19,12,00,14.80
2019,03,19,12,01,14.80
2019,03,19,12,02,14.80
2019,03,19,12,03,14.80
2019,03,19,12,04,14.80
2019,03,19,12,05,14.90
2019,03,19,12,06,14.90
2019,03,19,12,07,15.00
2019,03,19,12,08,15.00
2019,03,19,12,09,15.00
2019,03,19,12,10,15.00
2019,03,19,12,11,15.00
2019,03,19,12,12,15.00
2019,03,19,12,13,14.90
2019,03,19,12,14,14.90
2019,03,19,12,15,14.90
2019,03,19,12,16,14.90
2019,03,19,12,17,14.90
2019,03,19,12,18,15.00
2019,03,19,12,19,15.00
2019,03,19,12,20,15.00
2019,03,19,12,21,15.00
2019,03,19,12,22,15.00
2019,03,19,12,23,15.00
2019,03,19,12,24,15.10
2019,03,19,12,25,15.20
2019,03,19,12,26,15.20
2019,03,19,12,27,15.20
2019,03,19,12,28,15.20
2019,03,19,12,29,15.20
2019,03,19,12,30,15.20
2019,03,19,12,31,15.20
2019,03,19,12,32,15.20
2019,03,19,12,33,15.30
2019,03,19,12,34,15.30
2019,03,19,12,35,15.40
2019,03,19,12,36,15.40
2019,03,19,12,37,15.40
2019,03,19,12,38,15.40
2019,03,19,12,39,15.40
2019,03,19,12,40,15.30
2019,03,19,12,41,15.30
2019,03,19,12,42,15.40
2019,03,19,12,43,15.40
2019,03,19,12,44,15.50
2019,03,19,12,45,15.60
2019,03,19,12,46,15.70
2019,03,19,12,47,15.80
2019,03,19,12,48,16.00
2019,03,19,12,49,16.10
2019,03,19,12,50,16.20
2019,03,19,12,51,16.30
2019,03,19,12,52,16.40
2019,03,19,12,53,16.40
2019,03,19,12,54,16.50
2019,03,19,12,55,16.50
2019,03,19,12,56,16.40
2019,03,19,12,57,16.40
2019,03,19,12,58,16.40
2019,03,19,12,59,16.30
2019,03,19,13,00,16.30
2019,03,19,13,01,16.30
2019,03,19,13,02,16.40
2019,03,19,13,03,16.40
2019,03,19,13,04,16.40
2019,03,19,13,05,16.40
2019,03,19,13,06,16.40
2019,03,19,13,07,16.50
2019,03,19,13,08,16.60
2019,03,19,13,09,16.70
2019,03,19,13,10,16.70
2019,03,19,13,11,16.80
2019,03,19,13,12,16.90
2019,03,19,13,13,16.90
2019,03,19,13,14,16.90
2019,03,19,13,15,16.90
2019,03,19,13,16,16.90
2019,03,19,13,17,16.90
2019,03,19,13,18,17.00
2019,03,19,13,19,17.10
2019,03,19,13,20,17.10
2019,03,19,13,21,17.20
2019,03,19,13,22,17.20
2019,03,19,13,23,17.30
2019,03,19,13,24,17.30
2019,03,19,13,25,17.30
2019,03,19,13,26,17.30
2019,03,19,13,27,17.40
2019,03,19,13,28,17.40
2019,03,19,13,29,17.40
2019,03,19,13,30,17.40
2019,03,19,13,31,17.50
2019,03,19,13,32,17.60
2019,03,19,13,33,17.60
2019,03,19,13,34,17.50
2019,03,19,13,35,17.50
2019,03,19,13,36,17.40
2019,03,19,13,37,17.50
2019,03,19,13,38,17.60
2019,03,19,13,39,17.60
2019,03,19,13,40,17.70
2019,03,19,13,41,17.70
2019,03,19,13,42,17.70
2019,03,19,13,43,17.80
2019,03,19,13,44,17.80
2019,03,19,13,45,17.80
2019,03,19,13,46,17.80
2019,03,19,13,47,17.80
2019,03,19,13,48,17.80
2019,03,19,13,49,17.90
2019,03,19,13,50,17.90
2019,03,19,13,51,17.90
2019,03,19,13,52,17.90
2019,03,19,13,53,18.00
2019,03,19,13,54,18.10
2019,03,19,13,55,18.20
2019,03,19,13,56,18.20
2019,03,19,13,57,18.20
2019,03,19,13,58,18.20
2019,03,19,13,59,18.20
2019,03,19,14,00,18.20
2019,03,19,14,01,18.20
2019,03,19,14,02,18.20
2019,03,19,14,03,18.20
2019,03,19,14,04,18.20
2019,03,19,14,05,18.20
2019,03,19,14,06,18.20
2019,03,19,14,07,18.20
2019,03,19,14,08,18.30
2019,03,19,14,09,18.30
2019,03,19,14,10,18.30
2019,03,19,14,11,18.30
2019,03,19,14,12,18.30
2019,03,19,14,13,18.30
2019,03,19,14,14,18.20
2019,03,19,14,15,18.20
2019,03,19,14,16,18.20
2019,03,19,14,17,18.20
2019,03,19,14,18,18.20
2019,03,19,14,19,18.30
2019,03,19,14,20,18.40
2019,03,19,14,21,18.50
2019,03,19,14,22,18.70
2019,03,19,14,23,18.80
2019,03,19,14,24,18.90
2019,03,19,14,25,19.00
2019,03,19,14,26,19.10
2019,03,19,14,27,19.20
2019,03,19,14,28,19.20
2019,03,19,14,29,19.30
2019,03,19,14,30,19.30
2019,03,19,14,31,19.30
2019,03,19,14,32,19.30
2019,03,19,14,33,19.30
2019,03,19,14,34,19.40
2019,03,19,14,35,19.40
2019,03,19,14,36,19.40
2019,03,19,14,37,19.40
2019,03,19,14,38,19.40
2019,03,19,14,39,19.40
2019,03,19,14,40,19.40
2019,03,19,14,41,19.40
2019,03,19,14,42,19.50
2019,03,19,14,43,19.50
2019,03,19,14,44,19.50
2019,03,19,14,45,19.40
2019,03,19,14,46,19.50
2019,03,19,14,47,19.50
2019,03,19,14,48,19.60
2019,03,19,14,49,19.60
2019,03,19,14,50,19.60
2019,03,19,14,51,19.60
2019,03,19,14,52,19.50
2019,03,19,14,53,19.40
2019,03,19,14,54,19.40
2019,03,19,14,55,19.40
2019,03,19,14,56,19.50
2019,03,19,14,57,19.50
2019,03,19,14,58,19.40
2019,03,19,14,59,19.40
2019,03,19,15,00,19.30
2019,03,19,15,01,19.30
2019,03,19,15,02,19.20
2019,03,19,15,03,19.20
2019,03,19,15,04,19.20
2019,03,19,15,05,19.10
2019,03,19,15,06,19.00
2019,03,19,15,07,19.00
2019,03,19,15,08,19.10
2019,03,19,15,09,19.10
2019,03,19,15,10,19.20
2019,03,19,15,11,19.20
2019,03,19,15,12,19.10
2019,03,19,15,13,19.10
2019,03,19,15,14,19.10
2019,03,19,15,15,19.00
2019,03,19,15,16,19.00
2019,03,19,15,17,19.00
2019,03,19,15,18,18.90
2019,03,19,15,19,18.80
2019,03,19,15,20,18.80
2019,03,19,15,21,18.80
2019,03,19,15,22,18.80
2019,03,19,15,23,18.80
2019,03,19,15,24,18.80
2019,03,19,15,25,18.80
2019,03,19,15,26,18.80
2019,03,19,15,27,18.80
2019,03,19,15,28,18.90
2019,03,19,15,29,19.00
2019,03,19,15,30,19.10
2019,03,19,15,31,19.10
2019,03,19,15,32,19.20
2019,03,19,15,33,19.20
2019,03,19,15,34,19.20
2019,03,19,15,35,19.20
2019,03,19,15,36,19.20
2019,03,19,15,37,19.30
2019,03,19,15,38,19.30
2019,03,19,15,39,19.30
2019,03,19,15,40,19.30
2019,03,19,15,41,19.30
2019,03,19,15,42,19.30
2019,03,19,15,43,19.40
2019,03,19,15,44,19.40
2019,03,19,15,45,19.40
2019,03,19,15,46,19.40
2019,03,19,15,47,19.40
2019,03,19,15,48,19.40
2019,03,19,15,49,19.30
2019,03,19,15,50,19.30
2019,03,19,15,51,19.30
2019,03,19,15,52,19.40
2019,03,19,15,53,19.40
2019,03,19,15,54,19.40
2019,03,19,15,55,19.40
2019,03,19,15,56,19.40
2019,03,19,15,57,19.30
2019,03,19,15,58,19.30
2019,03,19,15,59,19.30
2019,03,19,16,00,19.40
2019,03,19,16,01,19.50
2019,03,19,16,02,19.50
2019,03,19,16,03,19.60
2019,03,19,16,04,19.60
2019,03,19,16,05,19.60
2019,03,19,16,06,19.60
2019,03,19,16,07,19.60
2019,03,19,16,08,19.50
2019,03,19,16,09,19.50
2019,03,19,16,10,19.60
2019,03,19,16,11,19.60
2019,03,19,16,12,19.60
2019,03,19,16,13,19.60
2019,03,19,16,14,19.60
2019,03,19,16,15,19.60
2019,03,19,16,16,19.60
2019,03,19,16,17,19.60
2019,03,19,16,18,19.60
2019,03,19,16,19,19.60
2019,03,19,16,20,19.60
2019,03,19,16,21,19.60
2019,03,19,16,22,19.60
2019,03,19,16,23,19.60
2019,03,19,16,24,19.50
2019,03,19,16,25,19.40
2019,03,19,16,26,19.40
2019,03,19,16,27,19.40
2019,03,19,16,28,19.40
2019,03,19,16,29,19.40
2019,03,19,16,30,19.40
2019,03,19,16,31,19.40
2019,03,19,16,32,19.40
2019,03,19,16,33,19.40
2019,03,19,16,34,19.40
2019,03,19,16,35,19.40
2019,03,19,16,36,19.30
2019,03,19,16,37,19.30
2019,03,19,16,38,19.30
2019,03,19,16,39,19.30
2019,03,19,16,40,19.20
2019,03,19,16,41,19.20
2019,03,19,16,42,19.20
2019,03,19,16,43,19.20
2019,03,19,16,44,19.20
2019,03,19,16,45,19.20
2019,03,19,16,46,19.10
2019,03,19,16,47,19.10
2019,03,19,16,48,19.10
2019,03,19,16,49,19.00
2019,03,19,16,50,19.00
2019,03,19,16,51,18.90
2019,03,19,16,52,18.90
2019,03,19,16,53,18.80
2019,03,19,16,54,18.80
2019,03,19,16,55,18.90
2019,03,19,16,56,18.90
2019,03,19,16,57,18.90
2019,03,19,16,58,18.90
2019,03,19,16,59,18.90
2019,03,19,17,00,18.90
2019,03,19,17,01,18.90
2019,03,19,17,02,18.90
2019,03,19,17,03,18.90
2019,03,19,17,04,18.90
2019,03,19,17,05,18.90
2019,03,19,17,06,18.90
2019,03,19,17,07,18.90
2019,03,19,17,08,18.90
2019,03,19,17,09,18.90
2019,03,19,17,10,18.90
2019,03,19,17,11,18.90
2019,03,19,17,12,18.90
2019,03,19,17,13,18.90
2019,03,19,17,14,18.80
2019,03,19,17,15,18.80
2019,03,19,17,16,18.70
2019,03,19,17,17,18.70
2019,03,19,17,18,18.70
2019,03,19,17,19,18.70
2019,03,19,17,20,18.70
2019,03,19,17,21,18.70
2019,03,19,17,22,18.70
2019,03,19,17,23,18.70
2019,03,19,17,24,18.60
2019,03,19,17,25,18.60
2019,03,19,17,26,18.60
2019,03,19,17,27,18.60
2019,03,19,17,28,18.60
2019,03,19,17,29,18.60
2019,03,19,17,30,18.60
2019,03,19,17,31,18.50
2019,03,19,17,32,18.50
2019,03,19,17,33,18.50
2019,03,19,17,34,18.40
2019,03,19,17,35,18.40
2019,03,19,17,36,18.30
2019,03,19,17,37,18.30
2019,03,19,17,38,18.30
2019,03,19,17,39,18.30
2019,03,19,17,40,18.30
2019,03,19,17,41,18.20
2019,03,19,17,42,18.20
2019,03,19,17,43,18.20
2019,03,19,17,44,18.20
2019,03,19,17,45,18.20